Location: Corte Bragagnani
(45.3000°N, 11.1000°E)
Time: 07:04:54
(UTC+00:00)

CARTOSAT-1 - Pass Details

Date: 09 April 2020
Orbit: 616 x 619 km, 97.8° (Epoch: 01 June)

Event Time Altitude Azimuth Distance (km) Brightness Sun altitude
Exits shadow 20:39:33 47° 20° (NNE) 824 4.2 -26.1°
Drops below altitude 10° 20:42:51 10° 354° (N) 1,996 6.8 -26.5°
Sets 20:45:04 0° 351° (N) 2,907 7.8 -26.8°
